Time,TemperatureF,DewpointF,PressureIn,WindDirection,WindDirectionDegrees,WindSpeedMPH,WindSpeedGustMPH,Humidity,HourlyPrecipIn,Conditions,Clouds,dailyrainin,SoftwareType,DateUTC
2013-05-18 00:12:00,54.4,50.0,29.99,East,91,0.0,0.0,84,0.00,,,0.00,weatherlink.com 1.10,2013-05-18 07:12:00,
2013-05-18 00:27:00,54.3,50.0,29.99,East,91,0.0,0.0,84,0.00,,,0.00,weatherlink.com 1.10,2013-05-18 07:27:00,
2013-05-18 00:42:00,53.8,49.0,30.00,East,91,0.0,0.0,85,0.00,,,0.00,weatherlink.com 1.10,2013-05-18 07:42:00,
2013-05-18 00:57:00,53.8,49.0,30.00,East,91,0.0,0.0,85,0.00,,,0.00,weatherlink.com 1.10,2013-05-18 07:57:00,
2013-05-18 01:12:00,53.5,50.0,29.99,East,91,0.0,0.0,86,0.00,,,0.00,weatherlink.com 1.10,2013-05-18 08:12:00,
2013-05-18 01:27:00,53.3,49.0,29.99,East,91,0.0,0.0,86,0.00,,,0.00,weatherlink.com 1.10,2013-05-18 08:27:00,
2013-05-18 01:42:00,52.8,49.0,30.00,East,91,0.0,0.0,86,0.00,,,0.00,weatherlink.com 1.10,2013-05-18 08:42:00,
2013-05-18 01:57:00,51.6,48.0,29.99,East,91,0.0,0.0,86,0.00,,,0.00,weatherlink.com 1.10,2013-05-18 08:57:00,
2013-05-18 02:12:00,51.9,49.0,30.00,East,91,0.0,0.0,89,0.00,,,0.00,weatherlink.com 1.10,2013-05-18 09:12:00,
2013-05-18 02:27:00,51.9,49.0,30.00,East,91,0.0,0.0,89,0.00,,,0.00,weatherlink.com 1.10,2013-05-18 09:27:00,
2013-05-18 02:42:00,52.3,49.0,29.99,East,91,0.0,0.0,88,0.00,,,0.00,weatherlink.com 1.10,2013-05-18 09:42:00,
2013-05-18 02:57:00,52.6,49.0,30.00,East,79,0.0,1.0,87,0.00,,,0.00,weatherlink.com 1.10,2013-05-18 09:57:00,
2013-05-18 03:12:00,52.4,49.0,30.00,ENE,78,0.0,0.0,87,0.00,,,0.00,weatherlink.com 1.10,2013-05-18 10:12:00,
2013-05-18 03:27:00,52.3,49.0,30.00,East,79,0.0,0.0,87,0.00,,,0.00,weatherlink.com 1.10,2013-05-18 10:27:00,
2013-05-18 03:42:00,52.3,49.0,30.00,ENE,78,0.0,1.0,87,0.00,,,0.00,weatherlink.com 1.10,2013-05-18 10:42:00,
2013-05-18 03:57:00,52.2,49.0,30.00,ENE,74,0.0,1.0,88,0.00,,,0.00,weatherlink.com 1.10,2013-05-18 10:57:00,
2013-05-18 04:12:00,51.9,49.0,30.00,ENE,74,0.0,1.0,88,0.00,,,0.00,weatherlink.com 1.10,2013-05-18 11:12:00,
2013-05-18 04:27:00,51.9,49.0,30.00,ENE,74,2.0,2.0,89,0.00,,,0.00,weatherlink.com 1.10,2013-05-18 11:27:00,
2013-05-18 04:42:00,52.0,49.0,30.00,ENE,74,0.0,1.0,88,0.00,,,0.00,weatherlink.com 1.10,2013-05-18 11:42:00,
2013-05-18 04:57:00,51.5,48.0,30.01,ENE,74,0.0,0.0,89,0.00,,,0.00,weatherlink.com 1.10,2013-05-18 11:57:00,
2013-05-18 05:12:00,51.3,48.0,30.01,ENE,74,0.0,0.0,89,0.00,,,0.00,weatherlink.com 1.10,2013-05-18 12:12:00,
2013-05-18 05:27:00,50.4,48.0,30.01,ENE,74,0.0,0.0,90,0.00,,,0.00,weatherlink.com 1.10,2013-05-18 12:27:00,
2013-05-18 05:42:00,50.6,48.0,30.02,ENE,74,0.0,0.0,91,0.00,,,0.00,weatherlink.com 1.10,2013-05-18 12:42:00,
2013-05-18 05:57:00,49.9,47.0,30.02,ENE,74,0.0,0.0,91,0.00,,,0.00,weatherlink.com 1.10,2013-05-18 12:57:00,
2013-05-18 06:12:00,50.6,48.0,30.02,ENE,74,0.0,1.0,91,0.00,,,0.00,weatherlink.com 1.10,2013-05-18 13:12:00,
2013-05-18 06:27:00,51.6,49.0,30.03,ENE,74,0.0,1.0,90,0.00,,,0.00,weatherlink.com 1.10,2013-05-18 13:27:00,
2013-05-18 06:42:00,52.8,49.0,30.04,East,80,0.0,2.0,88,0.00,,,0.00,weatherlink.com 1.10,2013-05-18 13:42:00,
2013-05-18 06:57:00,54.0,50.0,30.04,ENE,74,0.0,2.0,85,0.00,,,0.00,weatherlink.com 1.10,2013-05-18 13:57:00,
2013-05-18 07:13:00,55.9,51.0,30.04,NNE,29,0.0,1.0,84,0.00,,,0.00,weatherlink.com 1.10,2013-05-18 14:13:00,
2013-05-18 07:28:00,56.8,51.0,30.04,ENE,72,1.0,3.0,81,0.00,,,0.00,weatherlink.com 1.10,2013-05-18 14:28:00,
2013-05-18 07:43:00,58.2,52.0,30.05,ESE,102,0.0,3.0,79,0.00,,,0.00,weatherlink.com 1.10,2013-05-18 14:43:00,
2013-05-18 07:58:00,61.5,54.0,30.05,ENE,77,0.0,1.0,75,0.00,,,0.00,weatherlink.com 1.10,2013-05-18 14:58:00,
2013-05-18 08:13:00,63.6,53.0,30.05,ESE,106,0.0,1.0,69,0.00,,,0.00,weatherlink.com 1.10,2013-05-18 15:13:00,
2013-05-18 08:28:00,64.5,54.0,30.05,ENE,78,0.0,2.0,68,0.00,,,0.00,weatherlink.com 1.10,2013-05-18 15:28:00,
2013-05-18 08:43:00,65.7,55.0,30.05,ENE,72,0.0,2.0,68,0.00,,,0.00,weatherlink.com 1.10,2013-05-18 15:43:00,
2013-05-18 08:58:00,66.7,54.0,30.05,WNW,292,1.0,3.0,65,0.00,,,0.00,weatherlink.com 1.10,2013-05-18 15:58:00,
2013-05-18 09:13:00,66.2,54.0,30.05,SW,227,0.0,4.0,65,0.00,,,0.00,weatherlink.com 1.10,2013-05-18 16:13:00,
2013-05-18 09:28:00,67.3,55.0,30.05,West,261,1.0,4.0,65,0.00,,,0.00,weatherlink.com 1.10,2013-05-18 16:28:00,
2013-05-18 09:43:00,67.2,55.0,30.05,WNW,283,3.0,7.0,66,0.00,,,0.00,weatherlink.com 1.10,2013-05-18 16:43:00,
2013-05-18 09:58:00,67.7,55.0,30.05,WNW,288,4.0,5.0,64,0.00,,,0.00,weatherlink.com 1.10,2013-05-18 16:58:00,
2013-05-18 10:13:00,68.7,56.0,30.04,SW,228,4.0,6.0,64,0.00,,,0.00,weatherlink.com 1.10,2013-05-18 17:13:00,
2013-05-18 10:28:00,68.5,55.0,30.04,SW,230,4.0,7.0,63,0.00,,,0.00,weatherlink.com 1.10,2013-05-18 17:28:00,
2013-05-18 10:43:00,69.4,55.0,30.04,WNW,285,3.0,10.0,61,0.00,,,0.00,weatherlink.com 1.10,2013-05-18 17:43:00,
2013-05-18 10:58:00,70.3,56.0,30.04,WSW,250,5.0,8.0,61,0.00,,,0.00,weatherlink.com 1.10,2013-05-18 17:58:00,
2013-05-18 11:13:00,71.0,56.0,30.04,West,264,2.0,11.0,59,0.00,,,0.00,weatherlink.com 1.10,2013-05-18 18:13:00,
2013-05-18 11:28:00,70.4,56.0,30.03,WSW,257,5.0,9.0,61,0.00,,,0.00,weatherlink.com 1.10,2013-05-18 18:28:00,
2013-05-18 11:43:00,71.3,57.0,30.03,WSW,255,3.0,10.0,60,0.00,,,0.00,weatherlink.com 1.10,2013-05-18 18:43:00,
2013-05-18 11:58:00,71.7,56.0,30.03,West,265,3.0,14.0,58,0.00,,,0.00,weatherlink.com 1.10,2013-05-18 18:58:00,
2013-05-18 12:13:00,71.8,57.0,30.02,WSW,239,10.0,10.0,59,0.00,,,0.00,weatherlink.com 1.10,2013-05-18 19:13:00,
2013-05-18 12:28:00,71.5,56.0,30.02,SW,216,8.0,11.0,58,0.00,,,0.00,weatherlink.com 1.10,2013-05-18 19:28:00,
2013-05-18 12:43:00,71.3,56.0,30.02,SW,216,5.0,11.0,59,0.00,,,0.00,weatherlink.com 1.10,2013-05-18 19:43:00,
2013-05-18 12:58:00,71.5,56.0,30.02,SW,214,4.0,12.0,58,0.00,,,0.00,weatherlink.com 1.10,2013-05-18 19:58:00,
2013-05-18 13:13:00,72.6,56.0,30.02,SW,234,2.0,7.0,57,0.00,,,0.00,weatherlink.com 1.10,2013-05-18 20:13:00,
2013-05-18 13:28:00,71.6,56.0,30.02,SSW,213,2.0,11.0,59,0.00,,,0.00,weatherlink.com 1.10,2013-05-18 20:28:00,
2013-05-18 13:43:00,71.8,57.0,30.02,West,269,1.0,10.0,59,0.00,,,0.00,weatherlink.com 1.10,2013-05-18 20:43:00,
2013-05-18 13:58:00,72.8,56.0,30.02,WNW,282,5.0,9.0,56,0.00,,,0.00,weatherlink.com 1.10,2013-05-18 20:58:00,
2013-05-18 14:13:00,71.8,56.0,30.02,WNW,297,9.0,11.0,57,0.00,,,0.00,weatherlink.com 1.10,2013-05-18 21:13:00,
2013-05-18 14:29:00,71.3,55.0,30.02,West,263,5.0,10.0,57,0.00,,,0.00,weatherlink.com 1.10,2013-05-18 21:29:00,
2013-05-18 14:44:00,72.0,55.0,30.01,SSW,210,5.0,12.0,56,0.00,,,0.00,weatherlink.com 1.10,2013-05-18 21:44:00,
2013-05-18 14:59:00,72.5,54.0,30.01,WSW,257,5.0,8.0,53,0.00,,,0.00,weatherlink.com 1.10,2013-05-18 21:59:00,
2013-05-18 15:14:00,72.4,54.0,30.01,SW,230,4.0,11.0,52,0.00,,,0.00,weatherlink.com 1.10,2013-05-18 22:14:00,
2013-05-18 15:29:00,72.2,53.0,30.00,WSW,248,4.0,8.0,51,0.00,,,0.00,weatherlink.com 1.10,2013-05-18 22:29:00,
2013-05-18 15:44:00,72.3,53.0,30.00,SW,227,4.0,9.0,51,0.00,,,0.00,weatherlink.com 1.10,2013-05-18 22:44:00,
2013-05-18 15:59:00,72.4,51.0,30.00,West,259,5.0,10.0,48,0.00,,,0.00,weatherlink.com 1.10,2013-05-18 22:59:00,
2013-05-18 16:14:00,72.0,52.0,29.99,WNW,291,3.0,10.0,49,0.00,,,0.00,weatherlink.com 1.10,2013-05-18 23:14:00,
2013-05-18 16:29:00,72.0,51.0,29.99,South,176,4.0,9.0,47,0.00,,,0.00,weatherlink.com 1.10,2013-05-18 23:29:00,
2013-05-18 16:44:00,72.2,51.0,29.99,WSW,254,3.0,9.0,47,0.00,,,0.00,weatherlink.com 1.10,2013-05-18 23:44:00,
2013-05-18 16:59:00,72.3,51.0,29.98,WSW,245,6.0,6.0,48,0.00,,,0.00,weatherlink.com 1.10,2013-05-18 23:59:00,
2013-05-18 17:14:00,72.8,52.0,29.98,SW,234,4.0,6.0,48,0.00,,,0.00,weatherlink.com 1.10,2013-05-19 00:14:00,
2013-05-18 17:29:00,72.0,52.0,29.98,SW,219,4.0,6.0,50,0.00,,,0.00,weatherlink.com 1.10,2013-05-19 00:29:00,
2013-05-18 17:44:00,72.1,53.0,29.98,WSW,255,0.0,3.0,51,0.00,,,0.00,weatherlink.com 1.10,2013-05-19 00:44:00,
2013-05-18 17:59:00,71.5,53.0,29.97,SSW,210,0.0,6.0,52,0.00,,,0.00,weatherlink.com 1.10,2013-05-19 00:59:00,
2013-05-18 18:14:00,71.1,53.0,29.97,ENE,62,0.0,4.0,53,0.00,,,0.00,weatherlink.com 1.10,2013-05-19 01:14:00,
2013-05-18 18:29:00,70.4,53.0,29.97,WSW,245,0.0,4.0,54,0.00,,,0.00,weatherlink.com 1.10,2013-05-19 01:29:00,
2013-05-18 18:44:00,69.2,53.0,29.98,NW,309,0.0,3.0,57,0.00,,,0.00,weatherlink.com 1.10,2013-05-19 01:44:00,
2013-05-18 18:59:00,68.0,53.0,29.98,SW,224,2.0,7.0,60,0.00,,,0.00,weatherlink.com 1.10,2013-05-19 01:59:00,
2013-05-18 19:14:00,67.1,53.0,29.98,SSW,210,1.0,2.0,62,0.00,,,0.00,weatherlink.com 1.10,2013-05-19 02:14:00,
2013-05-18 19:29:00,65.7,54.0,29.98,SSE,150,0.0,1.0,65,0.00,,,0.00,weatherlink.com 1.10,2013-05-19 02:29:00,
2013-05-18 19:44:00,63.6,53.0,29.97,SSW,206,0.0,1.0,69,0.00,,,0.00,weatherlink.com 1.10,2013-05-19 02:44:00,
2013-05-18 19:59:00,61.5,52.0,29.97,SSE,151,0.0,2.0,72,0.00,,,0.00,weatherlink.com 1.10,2013-05-19 02:59:00,
2013-05-18 20:14:00,60.3,52.0,29.98,SE,141,0.0,1.0,75,0.00,,,0.00,weatherlink.com 1.10,2013-05-19 03:14:00,
2013-05-18 20:29:00,59.5,52.0,29.98,ESE,120,0.0,1.0,77,0.00,,,0.00,weatherlink.com 1.10,2013-05-19 03:29:00,
2013-05-18 20:44:00,58.8,52.0,29.98,ESE,121,0.0,0.0,78,0.00,,,0.00,weatherlink.com 1.10,2013-05-19 03:44:00,
2013-05-18 20:59:00,59.3,52.0,29.98,WSW,240,0.0,1.0,77,0.00,,,0.00,weatherlink.com 1.10,2013-05-19 03:59:00,
2013-05-18 21:14:00,58.5,52.0,29.98,WSW,241,0.0,0.0,79,0.00,,,0.00,weatherlink.com 1.10,2013-05-19 04:14:00,
2013-05-18 21:29:00,57.9,52.0,29.99,WSW,241,0.0,0.0,81,0.00,,,0.00,weatherlink.com 1.10,2013-05-19 04:29:00,
2013-05-18 21:44:00,57.8,52.0,29.99,WSW,241,0.0,0.0,82,0.00,,,0.00,weatherlink.com 1.10,2013-05-19 04:44:00,
2013-05-18 21:59:00,58.2,52.0,29.99,WSW,240,0.0,1.0,80,0.00,,,0.00,weatherlink.com 1.10,2013-05-19 04:59:00,
2013-05-18 22:14:00,57.5,52.0,29.99,WSW,241,0.0,0.0,82,0.00,,,0.00,weatherlink.com 1.10,2013-05-19 05:14:00,
2013-05-18 22:29:00,56.9,52.0,29.99,WSW,241,0.0,0.0,82,0.00,,,0.00,weatherlink.com 1.10,2013-05-19 05:29:00,
2013-05-18 22:44:00,56.5,52.0,29.99,WSW,240,0.0,0.0,86,0.00,,,0.00,weatherlink.com 1.10,2013-05-19 05:44:00,
2013-05-18 22:59:00,56.5,52.0,29.99,WSW,240,0.0,0.0,85,0.00,,,0.00,weatherlink.com 1.10,2013-05-19 05:59:00,
2013-05-18 23:14:00,56.0,52.0,29.99,WSW,241,0.0,0.0,86,0.00,,,0.00,weatherlink.com 1.10,2013-05-19 06:14:00,
2013-05-18 23:29:00,55.7,51.0,29.98,WSW,240,0.0,0.0,85,0.00,,,0.00,weatherlink.com 1.10,2013-05-19 06:29:00,
2013-05-18 23:44:00,55.5,51.0,29.99,WSW,241,0.0,0.0,85,0.00,,,0.00,weatherlink.com 1.10,2013-05-19 06:44:00,
2013-05-18 23:59:00,55.2,51.0,29.99,WSW,241,0.0,0.0,86,0.00,,,0.00,weatherlink.com 1.10,2013-05-19 06:59:00,